Regional Weather Roundup
Issued by NWS

Home | Current Version | Previous Version | Graphics & Text | Print | Product List | Glossary On
Versions: 1 2 3 4 5 6 7 8 9 10 11 12 13 14 15 16 17 18 19 20 21 22 23 24 25 26 27 28 29 30 31 32 33 34 35 36 37 38 39 40 41 42 43 44 45 46 47 48 49 50
794
ASUS43 KMPX 271801
RWRMN
WEATHER ROUNDUP FOR MINNESOTA
NATIONAL WEATHER SERVICE TWIN CITIES/CHANHASSEN MN
100 PM CDT SAT MAY 27 2017


NOTE: "FAIR" INDICATES FEW OR NO CLOUDS BELOW 12,000 FEET WITH NO
SIGNIFICANT WEATHER AND/OR OBSTRUCTIONS TO VISIBILITY. N/A MEANS
CURRENT SKY AND/OR WEATHER CONDITIONS ARE NOT AVAILABLE.

MNZ060>063-068>070-271900-
   Twin Cities Metro

CITY           SKY/WX    TMP DP  RH WIND       PRES   REMARKS
TWIN CITIES    CLOUDY    69  43  38 W7        29.93R
6HR MIN TEMP:  57; 6HR MAX TEMP:  72;

ST PAUL        CLOUDY    69  44  40 SW7       29.92R
CRYSTAL        CLOUDY    69  42  37 SW6       29.91R
BLAINE         CLOUDY    70  43  37 W5        29.91R
LAKEVILLE      LGT RAIN  61  54  77 CALM      29.94S
EDEN PRAIRIE   CLOUDY    69  47  45 SW3       29.92R
6HR MIN TEMP:  56; 6HR MAX TEMP:  72;

SOUTH ST PAUL  CLOUDY    69  44  39 SW5       29.92R
LAKE ELMO      FAIR      68  46  45 W8        29.93R
$$
MNZ001>005-007-008-013>017-022>024-027-028-271900-
   Northwest Minnesota

CITY           SKY/WX    TMP DP  RH WIND       PRES   REMARKS
BEMIDJI        MOSUNNY   72  39  30 W16G24    29.80S
HALLOCK        MOSUNNY   73  32  21 W20G28    29.72S
ROSEAU         MOSUNNY   70  45  40 W15G22    29.73S
WARROAD        SUNNY     72  43  35 SW14G25   29.72F
CROOKSTON      MOSUNNY   73  39  29 W20       29.77S
FOSSTON        MOSUNNY   72  37  28 W13G20    29.80S
DETROIT LAKES  SUNNY     72  37  28 W12G21    29.83F
MOORHEAD       SUNNY     75  34  22 W18G25    29.81S
PARK RAPIDS    PTSUNNY   72  39  30 W14       29.83S
MAHNOMEN       FAIR      74  35  24 W15G23    29.80F
$$
MNZ006-009>011-018-025>026-271900-
   North Central Minnesota

CITY           SKY/WX    TMP DP  RH WIND       PRES   REMARKS
BAUDETTE       MOSUNNY   74  39  28 SW10G22   29.73F
FLAG ISLAND    MOSUNNY   59  50  72 S8        29.71R
INTL FALLS     PTSUNNY   71  36  27 SW12G22   29.75F
6HR MIN TEMP:  48; 6HR MAX TEMP:  74;

WASKISH        PTSUNNY   70  45  40 SW12      29.78S
BIG FORK       MOSUNNY   72  37  28 W8G17     29.79S
LONGVILLE      MOSUNNY   73  39  29 SW10      29.83S
GRAND RAPIDS   CLOUDY    70  39  32 SW10G20   29.85S
CRANE LAKE     CLOUDY    70  37  30 SW6       29.80S
COOK           PTSUNNY   70  43  37 SW8       29.81S
WALKER         MOCLDY    69  38  31 W14G23    29.81S
$$
MNZ012-019>021-037-271900-
   Northeast Minnesota

CITY           SKY/WX    TMP DP  RH WIND       PRES   REMARKS
ELY            CLOUDY    66  37  34 W13G20    29.82S
HIBBING        PTSUNNY   69  39  33 W9G20     29.83S
EVELETH        PTSUNNY   70  29  21 W9G16     29.84S
DULUTH HARBOR  CLOUDY    72  45  37 SW9       29.84S
TWO HARBORS    CLOUDY    73  50  43 W3        29.82S
SILVER BAY     MOSUNNY   72  45  37 NE3       29.81S
GRAND MARAIS     N/A     50  43  77 SW12      29.81R
G MARAIS ARPRT MOSUNNY   66  39  37 SW7G16    29.83S
$$
MNZ029>031-032-039>041-046>048-054>057-064-271900-
   West Central Minnesota

CITY           SKY/WX    TMP DP  RH WIND       PRES   REMARKS
FERGUS FALLS   MOSUNNY   72  39  30 W15       29.82S
WHEATON        MOSUNNY   75  36  23 SW15G24   29.87S
MORRIS         CLOUDY    70  45  40 W3        29.88R
ALEXANDRIA     CLOUDY    69  41  36 SW10      29.89S
ELBOW LAKE     CLOUDY    69  41  36 SW12      29.86S
WADENA         SUNNY     72  43  35 W10G18    29.84F
GLENWOOD       SUNNY     72  43  35 SW10      29.90S
APPLETON       CLOUDY    73  39  29 SW8       29.88S
BENSON         CLOUDY    73  43  33 SW10      29.90S
ORTONVILLE     CLOUDY    72  41  33 W5        29.88S
MADISON        CLOUDY    73  46  38 W9        29.90S
WILLMAR        FAIR      70  45  40 W8        29.92S
$$
MNZ033>034-036-042>043-049>051-058-059-271900-
   Central Minnesota

CITY           SKY/WX    TMP DP  RH WIND       PRES   REMARKS
ST CLOUD       CLOUDY    68  48  48 W9        29.90R
6HR MIN TEMP:  50; 6HR MAX TEMP:  69;

SAUK CENTRE    FAIR      70  45  39 SW9       29.89S
PAYNESVILLE    PTSUNNY   69  46  43 SW9       29.91S
AITKIN         CLOUDY    70  43  37 SW7       29.84F
PINE RIVER     MOSUNNY   72  45  37 S8G16     29.87F
BRAINERD       CLOUDY    71  41  33 SW12      29.86F
STAPLES        MOSUNNY   73  39  29 SW7G18    29.85F
LONG PRAIRIE   FAIR      70  39  32 SW9       29.89S
LITTLE FALLS   PTSUNNY   70  43  37 S9        29.89R
LITCHFIELD     CLOUDY    70  48  46 SW5       29.92S
BUFFALO        CLOUDY    68  45  43 S7        29.93R
MAPLE LAKE     CLOUDY    68  49  50 SW6       29.92S
HUTCHINSON     PTSUNNY   68  48  48 SW7       29.94S
$$
MNZ037-044-045-052-053-271900-
   East Central Minnesota

CITY           SKY/WX    TMP DP  RH WIND       PRES   REMARKS
PRINCETON      PTSUNNY   72  46  40 W5        29.90S
MORA           PTSUNNY   66  43  42 SW5       29.90S
CAMBRIDGE      CLOUDY    72  50  46 SW5       29.88S
RUSH CITY      PTSUNNY   68  46  45 SW7       29.90S
MOOSE LAKE     CLOUDY    70  43  37 SW6G16    29.85S
HINCKLEY       FAIR      70  45  40 W7        29.88S
CLOQUET        MOSUNNY   70  37  30 W5        29.85F
MCGREGOR       CLOUDY    70  43  37 SW12G17   29.86F
$$
MNZ071>073-080-081-089-090-097-098-271900-
   Southwest Minnesota

CITY           SKY/WX    TMP DP  RH WIND       PRES   REMARKS
MONTEVIDEO     CLOUDY    72  52  49 W7        29.91S
CANBY          CLOUDY    70  49  46 CALM      29.92S
MARSHALL       CLOUDY    67  49  52 SW12      29.93R
REDWOOD FALLS  CLOUDY    67  50  54 SW7       29.92S
OLIVIA         CLOUDY    70  46  43 SW8       29.91S
PIPESTONE      MOSUNNY   64  46  52 W9        29.95S
WINDOM         PTSUNNY   64  48  55 SW7       29.95S
WORTHINGTON    CLOUDY    62  51  67 W8        29.97R
JACKSON        CLOUDY    61  50  67 CALM      29.96F
TRACY          CLOUDY    65  51  58 SW8       29.94S
SLAYTON        CLOUDY    62  47  57 W12       29.96R
$$
MNZ065>067-074>077-082>085-091>093-271900-
   South Central Minnesota

CITY           SKY/WX    TMP DP  RH WIND       PRES   REMARKS
MANKATO        LGT RAIN  65  50  58 N6        29.94S
NEW ULM        CLOUDY    66  46  48 SW3       29.92F
ST JAMES       CLOUDY    63  50  63 S7        29.95S
FAIRMONT       LGT RAIN  64  48  56 NW7       29.95S
GLENCOE        PTSUNNY   69  50  50 SW6       29.92S
FARIBAULT      CLOUDY    66  52  59 W7        29.96R
OWATONNA       CLOUDY    66  45  45 NW8       29.94R
WASECA         DRIZZLE   64  45  48 W8        29.95S
ALBERT LEA     CLOUDY    72  45  37 W3        29.93F
$$
MNZ078>079-086>088-094>096-271900-
   Southeast Minnesota

CITY           SKY/WX    TMP DP  RH WIND       PRES   REMARKS
ROCHESTER      CLOUDY    69  48  47 NW9       29.93S
6HR MIN TEMP:  56; 6HR MAX TEMP:  70;

RED WING       LGT RAIN  68  46  45 CALM      29.91S
STANTON        DRIZZLE   65  52  60 W7        29.93S
DODGE CENTER   CLOUDY    68  43  40 W3        29.94S
WINONA         CLOUDY    73  50  43 NW6       29.91R
AUSTIN         CLOUDY    70  46  43 W6        29.93S
PRESTON        CLOUDY    71  47  42 NW8       29.93S
$$
ABBREVIATIONS USED IN REMARKS
   TC - TEMPERATURES IN CELSIUS
  WCI - WIND CHILL INDEX
   HX - HEAT INDEX
  VSB - VISIBILITY
$$




USA.gov is the U.S. government's official web portal to all federal, state and local government web resources and services.